Location: Sternwarte ZA, Rosenfeld-Brittheim
(48.2889°N, 8.6789°E)
Time: 19:57:15

ISS - Pass Details

Date: 19 March 2018
Orbit: 403 x 406 km, 51.6° (Epoch: 23 March)

Event Time Altitude Azimuth Distance (km) Brightness Sun altitude
Exits shadow 05:48:31 10° 245° (WSW) 1,484 -1.6 -7.8°
Reaches altitude 10° 05:48:43 10° 242° (WSW) 1,461 -1.6 -7.8°
Maximum altitude 05:49:36 11° 226° (SW) 1,409 -1.6 -7.7°
Drops below altitude 10° 05:50:30 10° 210° (SSW) 1,458 -1.4 -7.5°
Sets 05:53:55 0° 172° (S) 2,310 0.0 -6.9°
